Weather in Fairbanks

United States     64°49′43″N   147°40′09″W
temp.,
°C
wind,
m/s
gust,
m/s
humid.,
%
clouds,
%
prec.,
mm/h
press.,
hPa
HPBL,
m
12 may, wed
wed1201:00+6sse119595 0.3 101631
04:00+6sse119499 0.8 101834
07:00+6s0094100 0.3 101962
10:00+8wsw1286100 0.3 1020418
13:00+8sw338080 0.0 1020529
16:00+12wsw215947 0.1 10201176
19:00+11wnw126293 0.6 1019946
22:00+8sw238378 0.9 101959
13 may, thu
thu1301:00+5w119069 0.1 102016
04:00+4ne119180 0.1 102112
07:00+5ne128090 0.0 1021109
10:00+10ne115988 0.0 1021570
13:00+14n114544 0.1 10201529
16:00+13wnw1144100 0.2 10181609
19:00+13wnw014242 0.0 10171091
22:00+9wsw11575 0.0 101610
14 may, fri
fri1401:00+6n11686 0.0 101610
04:00+4ne11785 0.0 101612
07:00+6ne236725 0.0 1015130
10:00+11ene23465 0.0 1013672
13:00+15ene23397 0.0 10111865
16:00+16e2233100 0.0 10082330
19:00+16nne233343 0.0 10062025
22:00+11ne385714 0.1 1005220
15 may, sat
sat1501:00+7nne247940 0.5 100580
04:00+5ne23836 0.6 100559
07:00+7ne24785 0.1 1004147
10:00+12ene12550 0.1 1004687
13:00+16sw114299 0.0 10031386
16:00+16sw3239100 0.1 10032034
19:00+15nw2341100 0.1 10031540
22:00+9ne2583100 0.8 1005230
16 may, sun
sun1601:00+8wnw379186 1.3 1007296
04:00+7wsw388878 1.5 1008331
07:00+8w278398 0.0 1009671
10:00+10w456476 0.1 10091267
13:00+11w345495 0.1 10101520
16:00+12nw235362 0.3 10101264
19:00+11w345871 0.3 1010813
22:00+8w37735 0.3 1012436